View from above orbital plane
|
View from above satellite
|
Ground track
|
The orbit data is extracted from the following two-line orbital elements,
1 25940U 99057A 21016.81502927 .00000008 00000-0 18458-4 0 9992
2 25940 98.6365 327.3587 0006147 78.3131 281.8744 14.35525369113704
Epoch (UTC): | 16 January 2021 19:33:38 |
Eccentricity: | 0.0006147 |
inclination: | 98.6365° |
perigee height: | 769 km |
apogee height: | 778 km |
right ascension of ascending node: | 327.3587° |
argument of perigee: | 78.3131° |
revolutions per day: | 14.35525369 |
mean anomaly at epoch: | 281.8744° |
orbit number at epoch: | 11370 |
The dashed part of the orbit path shows where the satellite is in the earth's shadow,
|
|